Zurück zum Katalog

WESTFORD NEEDLES

LostPO
NORAD 2372·DEBRIS·🇺🇸 United States

Gestartet May 9, 1963 von Vandenberg Space Force Base

Loading…

Nächste Überflüge (nächste 24 Stunden)

TLE

VeraltetSource: Space-Track

Epoche: Nov 18, 2013, 05:31 UTC

1  2372U 63014T   13322.23028137 +.00000002 +00000-0 +00000-0 0  9997
2  2372 087.4481 223.7980 0364875 229.3113 282.4794 08.66555747525688

Verfolge WESTFORD NEEDLES in Echtzeit mit AllMySat

Download on the App Store